Hill City, KS

9:37 PM CDT on September 24, 2016 (GMT -0500)
Hill City Municipal

Weather History for KHLC - December, 2014

Change the Weather History Date:

Thursday, December 11, 2014

  Actual Average Record
Temperature  
Mean Temperature 39 °F 31 °F  
Max Temperature 44 °F 43 °F 72 °F (1939)
Min Temperature 33 °F 18 °F -8 °F (1932)
Degree Days  
Heating Degree Days 26    
Moisture  
Dew Point 36 °F    
Average Humidity 94    
Maximum Humidity 100    
Minimum Humidity 86    
Precipitation  
Precipitation 0.00 in 0.02 in 0.11 in (2007)
Month to date precipitation 0.00 0.37  
Year to date precipitation 21.45 22.60  
Sea Level Pressure  
Sea Level Pressure 30.17 in    
Wind  
Wind Speed 5 mph (South)    
Max Wind Speed 13 mph    
Max Gust Speed -    
Visibility 4 miles    
Events      
T = Trace of Precipitation, MM = Missing Value Source: NWS Daily Summary

Daily Weather History Graph

Daily Weather History Graph

Search for Another Location

Airport or City:

Trip Planner

Search our weather history database for the weather conditions in past years. The results will help you decide how hot, cold, wet, or windy it might be!

Date:

Astronomy

Dec. 11, 2014 Rise Set
Actual Time 7:49 AM CST 5:16 PM CST
Civil Twilight 7:19 AM CST 5:46 PM CST
Nautical Twilight 6:45 AM CST 6:19 PM CST
Astronomical Twilight 6:12 AM CST 6:52 PM CST
Moon 10:27 PM CST (12/11) 11:14 AM CST (12/11)
Length of Visible Light 10h 27m
Length of Day
9h 26m
Waning Gibbous, 75% of the Moon is Illuminated
Dec 11
Waning Gibbous
Dec 14
Last Quarter
Dec 21
New
Dec 28
First Quarter
Jan 4
Full

Hourly Weather History & Observations

Time (CST) Temp. Windchill Dew Point Humidity Pressure Visibility Wind Dir Wind Speed Gust Speed Precip Events Conditions
12:11 AM 34.0 °F - 33.1 °F 96% 30.16 in 3.0 mi Calm Calm - N/A   Overcast
12:53 AM 34.0 °F 29.8 °F 33.1 °F 96% 30.20 in 4.0 mi South 4.6 mph - N/A   Overcast
1:53 AM 34.0 °F 28.8 °F 33.1 °F 96% 30.19 in 3.0 mi South 5.8 mph - N/A   Overcast
2:53 AM 34.0 °F 28.8 °F 33.1 °F 96% 30.19 in 3.0 mi South 5.8 mph - N/A   Overcast
3:31 AM 34.0 °F 28.8 °F 33.1 °F 96% 30.15 in 2.5 mi South 5.8 mph - N/A   Overcast
3:53 AM 34.0 °F 29.8 °F 33.1 °F 96% 30.18 in 2.5 mi South 4.6 mph - N/A   Overcast
4:06 AM 34.0 °F 31.0 °F 33.1 °F 96% 30.13 in 1.5 mi South 3.5 mph - N/A   Overcast
4:53 AM 34.0 °F 31.0 °F 33.1 °F 96% 30.19 in 1.5 mi SSW 3.5 mph - N/A   Overcast
5:07 AM 34.0 °F - 33.1 °F 96% 30.14 in 1.2 mi Calm Calm - N/A   Overcast
5:51 AM 33.8 °F 28.6 °F 33.8 °F 100% 30.13 in 1.5 mi South 5.8 mph - N/A   Overcast
5:53 AM 33.1 °F 26.9 °F 33.1 °F 100% 30.18 in 1.5 mi South 6.9 mph - N/A   Overcast
6:13 AM 33.1 °F 27.7 °F 32.0 °F 96% 30.13 in 3.0 mi SSW 5.8 mph - N/A   Overcast
6:53 AM 34.0 °F - 33.1 °F 96% 30.19 in 4.0 mi Calm Calm - N/A   Overcast
7:15 AM 34.0 °F - 33.1 °F 96% 30.15 in 2.0 mi Calm Calm - N/A   Overcast
7:53 AM 34.0 °F 31.0 °F 33.1 °F 96% 30.21 in 1.8 mi SSE 3.5 mph - N/A   Overcast
8:15 AM 35.1 °F - 34.0 °F 96% 30.16 in 1.0 mi Calm Calm - N/A   Overcast
8:53 AM 36.0 °F 32.1 °F 35.1 °F 97% 30.21 in 1.0 mi South 4.6 mph - N/A   Overcast
9:19 AM 37.0 °F 31.0 °F 36.0 °F 96% 30.17 in 2.0 mi South 8.1 mph - N/A   Overcast
9:42 AM 37.0 °F 32.4 °F 36.0 °F 96% 30.18 in 1.8 mi SSE 5.8 mph - N/A   Overcast
9:53 AM 37.0 °F 31.6 °F 36.0 °F 96% 30.22 in 2.5 mi South 6.9 mph - N/A   Overcast
10:05 AM 37.0 °F 31.6 °F 36.0 °F 96% 30.18 in 3.0 mi South 6.9 mph - N/A   Overcast
10:53 AM 37.9 °F 32.7 °F 37.0 °F 97% 30.22 in 4.0 mi SSW 6.9 mph - N/A   Overcast
11:53 AM 41.0 °F 35.8 °F 37.9 °F 89% 30.19 in 5.0 mi South 8.1 mph - N/A   Overcast
12:24 PM 41.0 °F 35.2 °F 39.0 °F 93% 30.14 in 7.0 mi South 9.2 mph - N/A   Overcast
12:53 PM 42.1 °F 36.6 °F 39.0 °F 89% 30.17 in 6.0 mi South 9.2 mph - N/A   Overcast
1:53 PM 42.1 °F 36.6 °F 39.0 °F 89% 30.16 in 6.0 mi South 9.2 mph - N/A   Overcast
2:53 PM 43.0 °F 38.2 °F 39.0 °F 86% 30.14 in 8.0 mi South 8.1 mph - N/A   Overcast
3:53 PM 43.0 °F 37.7 °F 39.0 °F 86% 30.14 in 8.0 mi South 9.2 mph - N/A   Overcast
4:53 PM 43.0 °F 37.7 °F 39.0 °F 86% 30.14 in 7.0 mi South 9.2 mph - N/A   Overcast
5:53 PM 43.0 °F 37.7 °F 39.9 °F 89% 30.15 in 7.0 mi SSE 9.2 mph - N/A   Overcast
6:09 PM 43.0 °F 37.7 °F 39.9 °F 89% 30.11 in 7.0 mi South 9.2 mph - N/A   Overcast
6:53 PM 43.0 °F 37.2 °F 41.0 °F 93% 30.16 in 6.0 mi South 10.4 mph - N/A   Overcast
7:53 PM 43.0 °F 36.8 °F 41.0 °F 93% 30.17 in 5.0 mi South 11.5 mph - N/A   Overcast
8:53 PM 43.0 °F 37.7 °F 41.0 °F 93% 30.17 in 5.0 mi South 9.2 mph - N/A   Overcast
9:26 PM 44.1 °F 40.1 °F 41.0 °F 89% 30.14 in 5.0 mi South 6.9 mph - N/A   Overcast
9:53 PM 44.1 °F 38.1 °F 42.1 °F 93% 30.17 in 6.0 mi South 11.5 mph - N/A   Overcast
10:53 PM 44.1 °F 39.0 °F 41.0 °F 89% 30.18 in 6.0 mi SSW 9.2 mph - N/A   Overcast
11:53 PM 44.1 °F 37.7 °F 41.0 °F 89% 30.20 in 7.0 mi South 12.7 mph - N/A   Overcast